Regional Weather Roundup
Issued by NWS Newport/Morehead, NC

Current Version | Previous Version | Text Only | Print | Product List | Glossary Off
Versions: 1 2 3 4 5 6 7 8 9 10 11 12 13 14 15 16 17 18 19 20 21 22 23 24 25 26 27 28 29 30 31 32 33 34 35 36 37 38 39 40 41 42 43 44 45 46 47 48 49 50

167
ASUS42 KMHX 111513
RWRMHX
WEATHER ROUNDUP FOR EASTERN NORTH CAROLINA
NATIONAL WEATHER SERVICE NEWPORT/MOREHEAD CITY NC
1000 AM EST THU FEB 11 2016

NOTE: "FAIR" INDICATES FEW OR NO CLOUDS BELOW 12,000 FEET
WITH NO SIGNIFICANT WEATHER AND/OR OBSTRUCTIONS TO VISIBILITY

NCZ015>017-031-032-045>047-102-103-111600-
NORTH COAST

CITY           SKY/WX    TMP DP  RH WIND       PRES   REMARKS
EDENTON        SUNNY     32   7  35 NW14G23   30.19F
ELIZABETH CITY SUNNY     29   6  38 W22       30.18S WCI  15
KITTY HAWK     SUNNY     30  10  43 W12G22    30.15R
MANTEO         SUNNY     29  11  45 NW18G25   30.17S WCI  17

$$

NCZ045>047-081-094-103-104-111600-
CENTRAL COAST

CITY           SKY/WX    TMP DP  RH WIND       PRES   REMARKS
FRISCO         SUNNY     32  11  41 NW18G31   30.17R
SWANQUARTER      N/A     32 N/A N/A NW18G25   30.15S

$$

NCZ095-097-098-100-101-111600-
SOUTHERN COAST

CITY           SKY/WX    TMP DP  RH WIND       PRES   REMARKS
BEAUFORT       SUNNY     34  10  37 NW17      30.22R
CEDAR ISLAND     N/A     34 N/A N/A NW18G29   30.24R
JACKSONVILLE   SUNNY     33   8  35 W14       30.23R
PINEY ISLAND   SUNNY    N/A N/A N/A NW18      30.19R
WILMINGTON     SUNNY     34  10  37 W3        30.25R


$$

NCZ011>013-027>030-043-044-078>080-089-090>093-098-111600-
COASTAL PLAIN

CITY           SKY/WX    TMP DP  RH WIND       PRES   REMARKS
AHOSKIE        SUNNY     28   6  38 W3        30.20S
CLINTON        SUNNY     31  10  41 NW7       30.25R
ELIZABETHTOWN  SUNNY     31   9  39 NW3       30.25R
GOLDSBORO      SUNNY     32   5  32 W10       30.20S
GREENVILLE     SUNNY     32   5  32 NW9       30.23R
HAVELOCK       SUNNY     34   8  33 NW18G24   30.22R
KENANSVILLE    SUNNY     30   8  38 CALM      30.25R
KINSTON        SUNNY     32   7  34 W9G18     30.23R
NEW BERN       SUNNY     33   7  33 NW15G23   30.23R
RICHLANDS      SUNNY     30   7  37 NW10      30.24R
ROCKY MOUNT    SUNNY     29   7  39 W12       30.21S WCI  19
WASHINGTON     SUNNY     31   6  35 NW9G17    30.20S
WHITEVILLE     SUNNY     33  11  40 W5        30.25R

$$

AMZ130-135-150-152-154-156-158-170-250-252-270-ANZ085-086-088-633-658-670-111600-
MARINE OBSERVATIONS

STATION/POSITION TIME  TEMP    WIND        PRES    WAVE   SWELL
                       AIR SEA DIR/SP/G            HT/PER HT/PER
                 (UTC) (F)     (DEG/KT/KT) (MB)    (FT/S) (FT/S)
CHESAPEAKE LIGHT NOT AVBL
64 E VA BEACH    NOT AVBL
DUCK             1400   27     300/ 19/ 26 1020.5
2 E DUCK         1411      44                N/A     3/13   2/13
OREGON INLET     1400   29 41  290/ 12/ 18 1021.1
13E OREGON INLT  1500      46                N/A     6/ 6   2/13
HATTERAS CG      1400   30 45  310/ 22/ 27 1020.7
DIAMOND BUOY     NOT AVBL
CAPE LOOKOUT     NOT AVBL
BEAUFORT LAB     1400   31 44  320/  7/ 13 1021.3
30 SE NEW RVR IN 1408   35 59              1023.0
30 SE NEW RVR IN 1425      59                N/A     6/ 8   2/11
27 SE WRIGHTSVLE NOT AVBL
5 SE WRIGHTSVLE  1408   32 51  320/  8/ 12 1024.2
225 S CAPE HAT   NOT AVBL
41 SE CHARLESTON NOT AVBL

$$




USA.gov is the U.S. government's official web portal to all federal, state and local government web resources and services.